Previsão horária em Ploske

Hoje, 5 Março, Sexta-feira

Tempo Temperatura Precipitação Vento Pressão Humidade
00:00 +3°C° 0 mm 4 m/s 745 mmHg 82%
01:00 +1°C° 0 mm 4 m/s 745 mmHg 86%
02:00 +1°C° 0 mm 4 m/s 745 mmHg 89%
03:00 +2°C° 0 mm 3 m/s 745 mmHg 90%
04:00 +1°C° 0 mm 3 m/s 745 mmHg 92%
05:00 +1°C° 0 mm 3 m/s 745 mmHg 93%
06:00 +2°C° 0 mm 2 m/s 746 mmHg 93%
07:00 +2°C° 0 mm 2 m/s 746 mmHg 92%
08:00 +2°C° 0 mm 2 m/s 746 mmHg 92%
09:00 +4°C° 0 mm 1 m/s 746 mmHg 89%
10:00 +5°C° 0 mm 1 m/s 746 mmHg 85%
11:00 +5°C° 0 mm 1 m/s 746 mmHg 82%
12:00 +5°C° 0 mm 1 m/s 746 mmHg 80%
13:00 +6°C° 0 mm 1 m/s 746 mmHg 78%
14:00 +6°C° 0 mm 1 m/s 746 mmHg 75%
15:00 +5°C° 0 mm 2 m/s 746 mmHg 80%
16:00 +4°C° 0 mm 2 m/s 746 mmHg 84%
17:00 +2°C° 0 mm 3 m/s 746 mmHg 88%
18:00 +2°C° 0.4 mm 3 m/s 746 mmHg 91%
19:00 0°C° 0.4 mm 4 m/s 747 mmHg 93%
20:00 0°C° 0.4 mm 4 m/s 747 mmHg 96%
21:00 -1°C° 1 mm 5 m/s 747 mmHg 96%
22:00 -1°C° 1 mm 5 m/s 747 mmHg 97%
23:00 -3°C° 1 mm 6 m/s 747 mmHg 97%

Amanhã, 6 Março, Sábado

Tempo Temperatura Precipitação Vento Pressão Humidade
00:00 -3°C° 1.3 mm 7 m/s 747 mmHg 97%
01:00 -4°C° 1.3 mm 7 m/s 748 mmHg 96%
02:00 -4°C° 1.3 mm 7 m/s 748 mmHg 96%
03:00 -4°C° 0.6 mm 7 m/s 748 mmHg 94%
04:00 -5°C° 0.6 mm 6 m/s 749 mmHg 92%
05:00 -5°C° 0.6 mm 5 m/s 749 mmHg 91%
06:00 -5°C° 0 mm 6 m/s 750 mmHg 89%
07:00 -5°C° 0 mm 6 m/s 751 mmHg 86%
08:00 -6°C° 0 mm 6 m/s 752 mmHg 84%
09:00 -5°C° 0 mm 6 m/s 752 mmHg 78%
10:00 -6°C° 0 mm 7 m/s 753 mmHg 73%
11:00 -6°C° 0 mm 7 m/s 753 mmHg 67%
12:00 -6°C° 0 mm 7 m/s 753 mmHg 66%
13:00 -4°C° 0 mm 6 m/s 754 mmHg 65%
14:00 -4°C° 0 mm 6 m/s 754 mmHg 63%
15:00 -4°C° 0 mm 5 m/s 754 mmHg 67%
16:00 -4°C° 0 mm 4 m/s 754 mmHg 70%
17:00 -4°C° 0 mm 3 m/s 755 mmHg 74%
18:00 -4°C° 0 mm 3 m/s 755 mmHg 75%
19:00 -5°C° 0 mm 3 m/s 755 mmHg 77%
20:00 -7°C° 0 mm 4 m/s 756 mmHg 78%
21:00 -7°C° 0 mm 4 m/s 756 mmHg 79%
22:00 -7°C° 0 mm 4 m/s 756 mmHg 80%
23:00 -7°C° 0 mm 4 m/s 756 mmHg 81%

Depois de amanhã, 7 Março, Domingo

Tempo Temperatura Precipitação Vento Pressão Humidade
00:00 -7°C° 0 mm 4 m/s 756 mmHg 82%
01:00 -7°C° 0 mm 4 m/s 756 mmHg 83%
02:00 -7°C° 0 mm 4 m/s 756 mmHg 84%
03:00 -7°C° 0 mm 4 m/s 756 mmHg 84%
04:00 -7°C° 0 mm 4 m/s 755 mmHg 83%
05:00 -7°C° 0 mm 4 m/s 755 mmHg 83%
06:00 -7°C° 0 mm 4 m/s 755 mmHg 80%
07:00 -6°C° 0 mm 5 m/s 754 mmHg 77%
08:00 -5°C° 0 mm 6 m/s 754 mmHg 74%
09:00 -5°C° 0 mm 6 m/s 754 mmHg 72%
10:00 -4°C° 0 mm 7 m/s 753 mmHg 70%
11:00 -4°C° 0 mm 8 m/s 753 mmHg 68%
12:00 -2°C° 0 mm 8 m/s 752 mmHg 66%
13:00 -3°C° 0 mm 9 m/s 751 mmHg 64%
14:00 -1°C° 0 mm 9 m/s 751 mmHg 62%
15:00 -1°C° 0 mm 8 m/s 750 mmHg 62%
16:00 -1°C° 0 mm 7 m/s 750 mmHg 63%
17:00 -2°C° 0 mm 7 m/s 749 mmHg 63%
18:00 -2°C° 0 mm 6 m/s 749 mmHg 65%
19:00 -3°C° 0 mm 6 m/s 749 mmHg 66%
20:00 -3°C° 0 mm 6 m/s 749 mmHg 68%
21:00 -3°C° 0 mm 6 m/s 749 mmHg 69%
22:00 -3°C° 0 mm 6 m/s 748 mmHg 70%
23:00 -3°C° 0 mm 6 m/s 748 mmHg 70%

8 Março, Segunda-feira

Tempo Temperatura Precipitação Vento Pressão Humidade
00:00 -3°C° 0 mm 6 m/s 748 mmHg 72%
01:00 -3°C° 0 mm 6 m/s 748 mmHg 74%
02:00 -3°C° 0 mm 6 m/s 747 mmHg 76%
03:00 -3°C° 0 mm 6 m/s 747 mmHg 77%
04:00 -4°C° 0 mm 6 m/s 747 mmHg 78%
05:00 -4°C° 0 mm 5 m/s 746 mmHg 79%
06:00 -3°C° 0 mm 6 m/s 747 mmHg 78%
07:00 -3°C° 0 mm 6 m/s 747 mmHg 76%
08:00 -3°C° 0 mm 6 m/s 747 mmHg 75%
09:00 -2°C° 0 mm 6 m/s 746 mmHg 72%
10:00 -1°C° 0 mm 6 m/s 746 mmHg 70%
11:00 -1°C° 0 mm 6 m/s 746 mmHg 68%
12:00 -1°C° 0 mm 6 m/s 746 mmHg 68%
13:00 +1°C° 0 mm 6 m/s 746 mmHg 67%
14:00 +1°C° 0 mm 6 m/s 746 mmHg 67%
15:00 0°C° 0 mm 5 m/s 746 mmHg 70%
16:00 +1°C° 0 mm 3 m/s 746 mmHg 74%
17:00 +2°C° 0 mm 2 m/s 746 mmHg 78%
18:00 +1°C° 0.1 mm 2 m/s 746 mmHg 83%
19:00 +1°C° 0.1 mm 1 m/s 746 mmHg 88%
20:00 +1°C° 0.1 mm 1 m/s 747 mmHg 93%
21:00 0°C° 0.3 mm 1 m/s 747 mmHg 94%
22:00 -2°C° 0.3 mm 2 m/s 747 mmHg 95%
23:00 -2°C° 0.3 mm 2 m/s 747 mmHg 96%

9 Março, Terça-feira

Tempo Temperatura Precipitação Vento Pressão Humidade
00:00 -2°C° 0.7 mm 3 m/s 747 mmHg 96%
01:00 -4°C° 0.7 mm 4 m/s 747 mmHg 96%
02:00 -5°C° 0.7 mm 5 m/s 747 mmHg 95%
03:00 -6°C° 0.1 mm 5 m/s 747 mmHg 95%
04:00 -5°C° 0.1 mm 4 m/s 747 mmHg 94%
05:00 -7°C° 0.1 mm 4 m/s 747 mmHg 94%
06:00 -7°C° 0 mm 4 m/s 748 mmHg 89%
07:00 -7°C° 0 mm 4 m/s 748 mmHg 84%
08:00 -5°C° 0 mm 4 m/s 749 mmHg 80%
09:00 -6°C° 0 mm 5 m/s 749 mmHg 74%
10:00 -5°C° 0 mm 5 m/s 750 mmHg 68%
11:00 -5°C° 0 mm 5 m/s 750 mmHg 63%
12:00 -5°C° 0 mm 5 m/s 750 mmHg 63%
13:00 -4°C° 0 mm 5 m/s 750 mmHg 63%
14:00 -4°C° 0 mm 5 m/s 751 mmHg 63%
15:00 -5°C° 0 mm 5 m/s 751 mmHg 64%
16:00 -5°C° 0 mm 5 m/s 751 mmHg 65%
17:00 -6°C° 0 mm 5 m/s 751 mmHg 66%
18:00 -6°C° 0 mm 5 m/s 752 mmHg 68%
19:00 -7°C° 0 mm 5 m/s 752 mmHg 71%
20:00 -8°C° 0 mm 4 m/s 753 mmHg 73%
21:00 -8°C° 0 mm 5 m/s 754 mmHg 72%
22:00 -10°C° 0 mm 5 m/s 754 mmHg 71%
23:00 -10°C° 0 mm 5 m/s 755 mmHg 70%

10 Março, Quarta-feira

Tempo Temperatura Precipitação Vento Pressão Humidade
00:00 -10°C° 0 mm 5 m/s 755 mmHg 70%
01:00 -11°C° 0 mm 5 m/s 755 mmHg 71%
02:00 -11°C° 0 mm 5 m/s 756 mmHg 71%
03:00 -11°C° 0 mm 5 m/s 756 mmHg 72%
04:00 -11°C° 0 mm 5 m/s 757 mmHg 72%
05:00 -12°C° 0 mm 5 m/s 757 mmHg 73%
06:00 -12°C° 0 mm 5 m/s 757 mmHg 72%
07:00 -12°C° 0 mm 5 m/s 758 mmHg 71%
08:00 -11°C° 0 mm 5 m/s 758 mmHg 71%
09:00 -10°C° 0 mm 4 m/s 759 mmHg 67%
10:00 -9°C° 0 mm 4 m/s 759 mmHg 64%
11:00 -8°C° 0 mm 4 m/s 759 mmHg 61%
12:00 -8°C° 0 mm 4 m/s 759 mmHg 57%
13:00 -6°C° 0 mm 3 m/s 759 mmHg 53%
14:00 -6°C° 0 mm 3 m/s 759 mmHg 49%
15:00 -6°C° 0 mm 3 m/s 759 mmHg 49%
16:00 -6°C° 0 mm 3 m/s 759 mmHg 50%
17:00 -5°C° 0 mm 2 m/s 759 mmHg 51%
18:00 -6°C° 0 mm 2 m/s 759 mmHg 54%
19:00 -6°C° 0 mm 2 m/s 759 mmHg 57%
20:00 -6°C° 0 mm 2 m/s 759 mmHg 60%
21:00 -6°C° 0 mm 1 m/s 759 mmHg 60%
22:00 -6°C° 0 mm 1 m/s 760 mmHg 60%
23:00 -6°C° 0 mm 1 m/s 760 mmHg 60%
Mostrar mais

Necessitamos do seu Consentimento

A Meteoprog e os seus Fornecedores de Serviços podem armazenar e aceder a dados pessoais como cookies, identificadores do dispositivo ou outras tecnologias semelhantes existentes no seu dispositivo e processar estes dados para personalizar conteúdos e anúncios, assim como funcionalidades nas redes sociais e análise de tráfego.

  • Armazenar e/ou aceder a informações no seu dispositivo

    Os cookies, identificadores do dispositivo ou outras informações podem ser armazenados ou acedidos no seu dispositivo, para os fins acima indicados.

  • Anúncios e conteúdos personalizados, medição de anúncios e conteúdos, dados sobre o público-alvo e desenvolvimento de produtos

    Os anúncios e os conteúdos podem ser personalizados com base num perfil. Podem ser adicionados dados adicionais para uma maior personalização dos anúncios e dos conteúdos. A eficácia dos anúncios e dos conteúdos pode ser medida. Podem ser obtidas informações sobre o público que visualizou os anúncios e os conteúdos. Estes dados podem ser usados para desenvolver ou melhorar sistemas, softwares ou a experiência do utilizador.

Ao clicar em "Eu concordo”, permitirá o uso de cookies, identificadores do dispositivo e web beacons mencionados ou outras tecnologias semelhantes. As configurações do navegador do seu dispositivo podem ser alteradas.

Para certos fins, podem ser invocados interesses legítimos ao invés de consentimento. Pode ler mais informação sobre este assunto na nossa Política de Privacidade e Cookies.